Sanford, ME

1:45 PM EST on November 21, 2017 (GMT -0500)
Sanford Regional

Weather History for KSFM - April, 2013

Change the Weather History Date:

Thursday, April 25, 2013

  Actual Average Record
Temperature  
Mean Temperature 46 °F -  
Max Temperature 60 °F 57 °F 64 °F (2006)
Min Temperature 32 °F 33 °F 19 °F (2016)
Degree Days  
Heating Degree Days 18    
Moisture  
Dew Point 32 °F    
Average Humidity 49    
Maximum Humidity 88    
Minimum Humidity 22    
Precipitation  
Precipitation 0.02 in - - ()
Sea Level Pressure  
Sea Level Pressure 30.02 in    
Wind  
Wind Speed 10 mph (West)    
Max Wind Speed 20 mph    
Max Gust Speed 30 mph    
Visibility 10 miles    
Events      
Averages and records for this station are not official NWS values.
T = Trace of Precipitation, MM = Missing Value Source: NWS Daily Summary

Daily Weather History Graph

Daily Weather History Graph

Search for Another Location

Airport or City:

Trip Planner

Search our weather history database for the weather conditions in past years. The results will help you decide how hot, cold, wet, or windy it might be!

Date:

Astronomy

Apr. 25, 2013 Rise Set
Actual Time 5:44 AM EDT 7:37 PM EDT
Civil Twilight 5:13 AM EDT 8:08 PM EDT
Nautical Twilight 4:36 AM EDT 8:46 PM EDT
Astronomical Twilight 3:55 AM EDT 9:27 PM EDT
Moon 7:48 PM EDT (4/25) 5:25 AM EDT (4/25)
Length of Visible Light 14h 55m
Length of Day
13h 53m
Full, 100% of the Moon is Illuminated
Apr 25
Full
Apr 25
Full
May 2
Last Quarter
May 9
New
May 18
First Quarter

Hourly Weather History & Observations

Time (EDT) Temp. Windchill Dew Point Humidity Pressure Visibility Wind Dir Wind Speed Gust Speed Precip Events Conditions
12:15 AM 53.6 °F - 42.8 °F 67% 29.78 in 10.0 mi SSW 5.8 mph - N/A   Clear
12:35 AM 51.8 °F - 42.8 °F 71% 29.78 in 10.0 mi South 6.9 mph - N/A   Clear
12:55 AM 51.8 °F - 42.8 °F 71% 29.77 in 10.0 mi South 8.1 mph - N/A   Clear
1:15 AM 51.8 °F - 42.8 °F 71% 29.77 in 10.0 mi South 8.1 mph - N/A   Partly Cloudy
1:35 AM 51.8 °F - 42.8 °F 71% 29.78 in 10.0 mi South 5.8 mph - N/A   Mostly Cloudy
1:55 AM 51.8 °F - 44.6 °F 76% 29.78 in 10.0 mi SSW 8.1 mph - N/A   Scattered Clouds
2:15 AM 53.6 °F - 44.6 °F 72% 29.78 in 10.0 mi SW 10.4 mph 16.1 mph N/A   Mostly Cloudy
2:35 AM 53.6 °F - 44.6 °F 72% 29.78 in 10.0 mi SSW 9.2 mph 17.3 mph N/A   Mostly Cloudy
2:55 AM 53.6 °F - 44.6 °F 72% 29.78 in 10.0 mi SSW 10.4 mph 23.0 mph N/A   Overcast
3:15 AM 53.6 °F - 46.4 °F 77% 29.80 in 10.0 mi SW 13.8 mph 26.5 mph N/A   Mostly Cloudy
3:35 AM 53.6 °F - 44.6 °F 72% 29.79 in 10.0 mi SW 10.4 mph 16.1 mph N/A   Scattered Clouds
3:55 AM 53.6 °F - 44.6 °F 72% 29.80 in 10.0 mi SSW 9.2 mph 17.3 mph N/A   Partly Cloudy
4:15 AM 53.6 °F - 46.4 °F 77% 29.82 in 10.0 mi SW 11.5 mph 16.1 mph N/A   Mostly Cloudy
4:35 AM 53.6 °F - 46.4 °F 77% 29.83 in 9.0 mi SW 12.7 mph 20.7 mph N/A   Overcast
4:55 AM 51.8 °F - 48.2 °F 88% 29.83 in 7.0 mi SW 12.7 mph 18.4 mph N/A   Overcast
5:15 AM 51.8 °F - 48.2 °F 88% 29.84 in 8.0 mi WSW 13.8 mph - 0.02 in   Overcast
5:35 AM 51.8 °F - 46.4 °F 82% 29.85 in 10.0 mi SW 10.4 mph - 0.02 in   Overcast
5:55 AM 51.8 °F - 46.4 °F 82% 29.87 in 10.0 mi West 15.0 mph 21.9 mph 0.02 in   Overcast
6:15 AM 51.8 °F - 39.2 °F 62% 29.90 in 10.0 mi West 17.3 mph 23.0 mph N/A   Scattered Clouds
6:35 AM 48.2 °F - 37.4 °F 66% 29.91 in 10.0 mi West 16.1 mph 21.9 mph N/A   Clear
6:55 AM 48.2 °F - 35.6 °F 62% 29.92 in 10.0 mi West 12.7 mph 20.7 mph N/A   Partly Cloudy
7:15 AM 48.2 °F - 35.6 °F 62% 29.94 in 10.0 mi West 13.8 mph 20.7 mph N/A   Partly Cloudy
7:35 AM 48.2 °F - 33.8 °F 58% 29.96 in 10.0 mi West 12.7 mph - N/A   Clear
7:56 AM 48.2 °F - 33.8 °F 58% 29.97 in 10.0 mi West 9.2 mph - N/A   Clear
8:15 AM 50.0 °F - 33.8 °F 54% 29.97 in 10.0 mi WNW 17.3 mph 24.2 mph N/A   Clear
8:35 AM 51.8 °F - 30.2 °F 44% 29.98 in 10.0 mi WNW 15.0 mph 25.3 mph N/A   Clear
8:55 AM 51.8 °F - 28.4 °F 41% 29.99 in 10.0 mi WNW 19.6 mph 28.8 mph N/A   Clear
9:15 AM 50.0 °F - 30.2 °F 47% 30.01 in 9.0 mi West 16.1 mph 24.2 mph N/A   Clear
9:35 AM 51.8 °F - 28.4 °F 41% 30.02 in 10.0 mi WNW 12.7 mph 23.0 mph N/A   Clear
9:55 AM 53.6 °F - 28.4 °F 38% 30.02 in 10.0 mi WNW 17.3 mph 29.9 mph N/A   Clear
10:15 AM 53.6 °F - 30.2 °F 41% 30.02 in 10.0 mi West 17.3 mph 25.3 mph N/A   Clear
10:35 AM 55.4 °F - 28.4 °F 36% 30.03 in 10.0 mi WNW 16.1 mph 26.5 mph N/A   Clear
10:55 AM 55.4 °F - 28.4 °F 36% 30.05 in 10.0 mi West 13.8 mph 26.5 mph N/A   Clear
11:15 AM 55.4 °F - 28.4 °F 36% 30.05 in 10.0 mi WNW 15.0 mph 23.0 mph N/A   Clear
11:35 AM 57.2 °F - 30.2 °F 36% 30.05 in 10.0 mi WNW 16.1 mph 23.0 mph N/A   Clear
11:55 AM 57.2 °F - 30.2 °F 36% 30.05 in 10.0 mi NW 10.4 mph 18.4 mph N/A   Clear
12:15 PM 57.2 °F - 28.4 °F 33% 30.06 in 10.0 mi West 11.5 mph 24.2 mph N/A   Clear
12:35 PM 57.2 °F - 28.4 °F 33% 30.07 in 10.0 mi WSW 6.9 mph 21.9 mph N/A   Clear
12:55 PM 60.8 °F - 28.4 °F 29% 30.07 in 10.0 mi WNW 13.8 mph 20.7 mph N/A   Clear
1:15 PM 60.8 °F - 28.4 °F 29% 30.07 in 10.0 mi WNW 10.4 mph 19.6 mph N/A   Clear
1:35 PM 60.8 °F - 28.4 °F 29% 30.08 in 10.0 mi West 17.3 mph 21.9 mph N/A   Clear
1:55 PM 60.8 °F - 28.4 °F 29% 30.08 in 10.0 mi WNW 9.2 mph 23.0 mph N/A   Clear
2:15 PM 60.8 °F - 28.4 °F 29% 30.08 in 10.0 mi NNW 11.5 mph - N/A   Clear
2:35 PM 60.8 °F - 26.6 °F 27% 30.08 in 10.0 mi WNW 9.2 mph - N/A   Clear
2:56 PM 60.8 °F - 26.6 °F 27% 30.08 in 10.0 mi West 11.5 mph 18.4 mph N/A   Clear
3:15 PM 60.8 °F - 26.6 °F 27% 30.08 in 10.0 mi WNW 11.5 mph 19.6 mph N/A   Clear
3:35 PM 60.8 °F - 26.6 °F 27% 30.08 in 10.0 mi NW 12.7 mph 23.0 mph N/A   Clear
3:55 PM 60.8 °F - 24.8 °F 25% 30.09 in 10.0 mi WNW 13.8 mph 18.4 mph N/A   Clear
4:15 PM 60.8 °F - 24.8 °F 25% 30.09 in 10.0 mi West 12.7 mph 17.3 mph N/A   Clear
4:35 PM 60.8 °F - 23.0 °F 23% 30.10 in 10.0 mi WNW 10.4 mph 19.6 mph N/A   Clear
4:55 PM 60.8 °F - 21.2 °F 22% 30.11 in 10.0 mi West 13.8 mph 19.6 mph N/A   Clear
5:15 PM 60.8 °F - 21.2 °F 22% 30.11 in 10.0 mi West 11.5 mph - N/A   Clear
5:35 PM 60.8 °F - 23.0 °F 23% 30.12 in 10.0 mi West 11.5 mph - N/A   Clear
5:55 PM 59.0 °F - 24.8 °F 27% 30.13 in 10.0 mi West 9.2 mph - N/A   Clear
6:15 PM 59.0 °F - 23.0 °F 25% 30.13 in 10.0 mi WNW 10.4 mph 16.1 mph N/A   Clear
6:35 PM 57.2 °F - 23.0 °F 27% 30.14 in 10.0 mi WNW 10.4 mph - N/A   Clear
6:55 PM 57.2 °F - 23.0 °F 27% 30.15 in 10.0 mi West 9.2 mph - N/A   Clear
7:15 PM 57.2 °F - 24.8 °F 29% 30.16 in 10.0 mi WNW 8.1 mph - N/A   Clear
7:35 PM 55.4 °F - 24.8 °F 31% 30.17 in 10.0 mi WNW 6.9 mph - N/A   Clear
7:55 PM 53.6 °F - 24.8 °F 33% 30.18 in 10.0 mi WNW 4.6 mph - N/A   Clear
8:15 PM 53.6 °F - 24.8 °F 33% 30.20 in 10.0 mi WNW 5.8 mph - N/A   Clear
8:35 PM 51.8 °F - 24.8 °F 35% 30.20 in 10.0 mi WNW 5.8 mph - N/A   Clear
8:55 PM 51.8 °F - 24.8 °F 35% 30.22 in 10.0 mi WNW 4.6 mph - N/A   Clear
9:15 PM 50.0 °F - 24.8 °F 37% 30.24 in 10.0 mi NNW 5.8 mph - N/A   Clear
9:35 PM 44.6 °F 42.2 °F 26.6 °F 49% 30.24 in 10.0 mi North 4.6 mph - N/A   Clear
9:55 PM 39.2 °F 35.9 °F 28.4 °F 65% 30.25 in 10.0 mi NNW 4.6 mph - N/A   Clear
10:15 PM 39.2 °F - 26.6 °F 61% 30.25 in 10.0 mi Calm Calm - N/A   Clear
10:35 PM - - - N/A% 30.25 in 10.0 mi Calm Calm - N/A   Clear
10:55 PM 35.6 °F - 28.4 °F 75% 30.26 in 10.0 mi Calm Calm - N/A   Clear
11:15 PM 33.8 °F - 26.6 °F 75% 30.27 in 10.0 mi Calm Calm - N/A   Clear
11:35 PM 33.8 °F - 26.6 °F 75% 30.27 in 10.0 mi Calm Calm - N/A   Clear
11:55 PM 32.0 °F - 26.6 °F 80% 30.28 in 10.0 mi Calm Calm - N/A   Clear